DECAYED

COSMOS 2251 DEB, 34550 (Decayed)

Orbit data source: Space-Track

COSMOS 2251 DEB, 34550 was space debris in LEO originally from a launch on Wed, 16 Jun 1993 UTC launched from the Plesetsk Missile And Space Complex (PKMTR). The debris from Iridium 33, an American commercial communications satellite, has been tracked extensively since its accidental collision with the defunct Russian satellite Cosmos 2251 in 2009. This event, occurring at high speed in low Earth orbit (LEO), generated thousands of pieces of space debris, significantly increasing the risk of further collisions. The Iridium 33 debris cloud has impacted space traffic management and orbital debris mitigation strategies, making it a subject of ongoing study in space situational awareness.

Not visible in the next 10 days
Identifier
34550, 1993-036UL
Orbit
Decayed
Country
Flag of CISCIS
Related business
Manufacturer
Unknown
Mission
Decayed spacecraft
Bus & Motor
Unknown
Mass
Unknown
Launch date (UTC)
1993-06-16 (32 years ago)
Launch vehicle
Unknown
Launch site
Plesetsk Missile And Space Complex (PKMTR)
Object type
Payload
Rocket body
Debris
Shape & HBR
Unknown shape, 0.1 m
Radar Cross Section
Small (<0.1 m²)

Expand to show TLE details & history
Last TLE update: 10 months ago

TLE from 10 months ago
0 COSMOS 2251 DEB
1 34550U 93036UL  24364.94106628  .02606794  00000-0  32635-1 0  9997
2 34550  73.9358 326.7044 0030972 208.9052 212.0794 15.55427432823722
Epoch: 2024-12-29T22:35Z
TLE epoch observation values (Epoch: 2024-12-29T22:35:08.126Z)
Latitude
57.12792°
Longitude
-84.64688°
Altitude
427.969 km
Speed
7.65 km/s
True Right ascension
23h 32m 01s
True Declination
56° 57' 48"
Sunlit
Object was in daylight at epoch
Visualization orbit readout
Latitude
Unknown
Longitude
Unknown
Altitude
Unknown
Speed
Unknown
Apparent Right ascension
Unknown
Apparent Declination
Unknown
Sunlit
N/A
Visualization observer readout
Local Sidereal Time
10:28:43
Azimuth
Unknown
Elevation
Unknown
Doppler factor
Unknown
Orbital elements
Apogee altitude
419.401 km
Perigee altitude
377.425 km
Semi-major axis
6,776.55 km
Eccentricity
0.0031
Inclination
73.9358°
RAAN
326.7044°
Arg. of periapsis
208.9052°
True anomaly
211.89152°
Mean anomaly
212.0794°
Eccentric anomaly
211.9854°
Mean motion
3.89072 °/min
Orbital period
92.53 mins
BSTAR
0.032635
Loading maneuver chart data...
Computing Atmospheric mass density...

Documentation

Showing up to 5 results
|